Time,TemperatureF,DewpointF,PressureIn,WindDirection,WindDirectionDegrees,WindSpeedMPH,WindSpeedGustMPH,Humidity,HourlyPrecipIn,Conditions,Clouds,dailyrainin,SoftwareType,DateUTC
2013-04-20 00:00:00,65.1,38.9,29.88,NW,315,0.0,0.0,38,0.00,,---,0.00,VWS V14.01,2013-04-20 07:00:00,
2013-04-20 00:05:00,65.3,39.1,29.88,NW,315,0.0,0.0,38,0.00,,---,0.00,VWS V14.01,2013-04-20 07:05:00,
2013-04-20 00:10:00,65.1,38.9,29.88,NW,315,0.0,0.0,38,0.00,,---,0.00,VWS V14.01,2013-04-20 07:10:00,
2013-04-20 00:15:00,65.5,38.5,29.91,NW,315,0.0,0.0,37,0.00,,---,0.00,VWS V14.01,2013-04-20 07:15:00,
2013-04-20 00:20:00,65.5,37.8,29.91,NW,315,0.0,0.0,36,0.00,,---,0.00,VWS V14.01,2013-04-20 07:20:00,
2013-04-20 00:25:00,65.5,37.8,29.91,NW,315,0.0,0.0,36,0.00,,---,0.00,VWS V14.01,2013-04-20 07:25:00,
2013-04-20 00:30:00,65.5,37.8,29.91,NW,315,0.0,0.0,36,0.00,,---,0.00,VWS V14.01,2013-04-20 07:30:00,
2013-04-20 00:35:00,65.5,37.8,29.91,NW,315,0.0,0.0,36,0.00,,---,0.00,VWS V14.01,2013-04-20 07:35:00,
2013-04-20 00:41:00,65.1,37.5,29.91,NW,315,0.0,0.0,36,0.00,,---,0.00,VWS V14.01,2013-04-20 07:41:00,
2013-04-20 00:46:00,65.1,37.5,29.91,NW,315,0.0,0.0,36,0.00,,---,0.00,VWS V14.01,2013-04-20 07:46:00,
2013-04-20 00:51:00,65.1,37.5,29.91,NW,315,0.0,0.0,36,0.00,,---,0.00,VWS V14.01,2013-04-20 07:51:00,
2013-04-20 00:56:00,64.8,37.2,29.91,NW,315,0.0,0.0,36,0.00,,---,0.00,VWS V14.01,2013-04-20 07:56:00,
2013-04-20 01:01:00,64.4,36.9,29.91,NW,315,0.0,0.0,36,0.00,,---,0.00,VWS V14.01,2013-04-20 08:01:00,
2013-04-20 01:06:00,64.0,37.3,29.91,NW,315,0.0,0.0,37,0.00,,---,0.00,VWS V14.01,2013-04-20 08:06:00,
2013-04-20 01:11:00,63.7,37.0,29.91,NW,315,0.0,0.0,37,0.00,,---,0.00,VWS V14.01,2013-04-20 08:11:00,
2013-04-20 01:16:00,63.3,36.6,29.91,NW,315,0.0,0.0,37,0.00,,---,0.00,VWS V14.01,2013-04-20 08:16:00,
2013-04-20 01:21:00,63.0,37.0,29.91,NW,315,0.0,0.0,38,0.00,,---,0.00,VWS V14.01,2013-04-20 08:21:00,
2013-04-20 01:26:00,63.0,37.6,29.91,NW,315,0.0,0.0,39,0.00,,---,0.00,VWS V14.01,2013-04-20 08:26:00,
2013-04-20 01:31:00,62.8,37.5,29.91,NW,315,0.0,0.0,39,0.00,,---,0.00,VWS V14.01,2013-04-20 08:31:00,
2013-04-20 01:36:00,62.4,37.2,29.91,NW,315,0.0,0.0,39,0.00,,---,0.00,VWS V14.01,2013-04-20 08:36:00,
2013-04-20 01:41:00,62.2,37.6,29.91,NW,315,0.0,0.0,40,0.00,,---,0.00,VWS V14.01,2013-04-20 08:41:00,
2013-04-20 01:46:00,62.1,37.5,29.91,NW,315,0.0,0.0,40,0.00,,---,0.00,VWS V14.01,2013-04-20 08:46:00,
2013-04-20 01:51:00,61.7,37.2,29.91,NW,315,0.0,0.0,40,0.00,,---,0.00,VWS V14.01,2013-04-20 08:51:00,
2013-04-20 01:56:00,61.7,37.8,29.91,NW,315,0.0,0.0,41,0.00,,---,0.00,VWS V14.01,2013-04-20 08:56:00,
2013-04-20 02:01:00,61.7,37.8,29.91,NW,315,0.0,0.0,41,0.00,,---,0.00,VWS V14.01,2013-04-20 09:01:00,
2013-04-20 02:06:00,61.7,37.8,29.91,NW,315,0.0,0.0,41,0.00,,---,0.00,VWS V14.01,2013-04-20 09:06:00,
2013-04-20 02:11:00,61.5,37.6,29.91,NW,315,0.0,0.0,41,0.00,,---,0.00,VWS V14.01,2013-04-20 09:11:00,
2013-04-20 02:16:00,61.5,37.6,29.91,NW,315,0.0,0.0,41,0.00,,---,0.00,VWS V14.01,2013-04-20 09:16:00,
2013-04-20 02:21:00,61.7,37.2,29.91,NW,315,0.0,0.0,40,0.00,,---,0.00,VWS V14.01,2013-04-20 09:21:00,
2013-04-20 02:26:00,61.9,37.3,29.91,NW,315,0.0,0.0,40,0.00,,---,0.00,VWS V14.01,2013-04-20 09:26:00,
2013-04-20 02:31:00,61.9,37.3,29.91,NW,315,0.0,0.0,40,0.00,,---,0.00,VWS V14.01,2013-04-20 09:31:00,
2013-04-20 02:36:00,61.9,36.7,29.91,NW,315,0.0,0.0,39,0.00,,---,0.00,VWS V14.01,2013-04-20 09:36:00,
2013-04-20 02:41:00,62.1,36.8,29.91,NW,315,0.0,0.0,39,0.00,,---,0.00,VWS V14.01,2013-04-20 09:41:00,
2013-04-20 02:46:00,62.2,37.0,29.91,North,0,6.0,6.0,39,0.00,,---,0.00,VWS V14.01,2013-04-20 09:46:00,
2013-04-20 02:51:00,62.2,36.3,29.91,North,0,6.0,6.0,38,0.00,,---,0.00,VWS V14.01,2013-04-20 09:51:00,
2013-04-20 02:56:00,62.2,36.3,29.91,North,0,6.0,6.0,38,0.00,,---,0.00,VWS V14.01,2013-04-20 09:56:00,
2013-04-20 03:01:00,62.1,36.2,29.88,North,0,7.4,7.4,38,0.00,,---,0.00,VWS V14.01,2013-04-20 10:01:00,
2013-04-20 03:06:00,62.1,36.2,29.88,North,0,7.4,7.4,38,0.00,,---,0.00,VWS V14.01,2013-04-20 10:06:00,
2013-04-20 03:11:00,61.7,35.9,29.88,North,0,7.4,7.4,38,0.00,,---,0.00,VWS V14.01,2013-04-20 10:11:00,
2013-04-20 03:16:00,61.5,35.7,29.88,North,0,7.4,7.4,38,0.00,,---,0.00,VWS V14.01,2013-04-20 10:16:00,
2013-04-20 03:21:00,61.2,36.0,29.88,North,0,7.4,7.4,39,0.00,,---,0.00,VWS V14.01,2013-04-20 10:21:00,
2013-04-20 03:26:00,61.0,35.9,29.88,North,0,7.4,7.4,39,0.00,,---,0.00,VWS V14.01,2013-04-20 10:26:00,
2013-04-20 03:31:00,60.8,35.7,29.91,North,0,7.4,7.4,39,0.00,,---,0.00,VWS V14.01,2013-04-20 10:31:00,
2013-04-20 03:36:00,60.4,36.0,29.91,North,0,7.4,7.4,40,0.00,,---,0.00,VWS V14.01,2013-04-20 10:36:00,
2013-04-20 03:41:00,60.3,36.5,29.91,North,0,7.4,7.4,41,0.00,,---,0.00,VWS V14.01,2013-04-20 10:41:00,
2013-04-20 03:46:00,60.1,36.3,29.91,North,0,7.4,7.4,41,0.00,,---,0.00,VWS V14.01,2013-04-20 10:46:00,
2013-04-20 03:51:00,59.9,36.2,29.91,North,0,7.4,7.4,41,0.00,,---,0.00,VWS V14.01,2013-04-20 10:51:00,
2013-04-20 03:56:00,59.5,36.5,29.91,North,0,7.4,7.4,42,0.00,,---,0.00,VWS V14.01,2013-04-20 10:56:00,
2013-04-20 04:01:00,59.4,36.3,29.91,NW,315,2.9,2.9,42,0.00,,---,0.00,VWS V14.01,2013-04-20 11:01:00,
2013-04-20 04:06:00,59.2,36.7,29.91,NNW,338,2.9,2.9,43,0.00,,---,0.00,VWS V14.01,2013-04-20 11:06:00,
2013-04-20 04:11:00,58.8,36.4,29.91,NNW,338,2.9,2.9,43,0.00,,---,0.00,VWS V14.01,2013-04-20 11:11:00,
2013-04-20 04:16:00,58.8,37.0,29.91,NW,315,3.4,3.4,44,0.00,,---,0.00,VWS V14.01,2013-04-20 11:16:00,
2013-04-20 04:22:00,58.5,36.7,29.91,WNW,292,2.9,2.9,44,0.00,,---,0.00,VWS V14.01,2013-04-20 11:22:00,
2013-04-20 04:27:00,58.1,36.3,29.91,North,0,2.2,2.2,44,0.00,,---,0.00,VWS V14.01,2013-04-20 11:27:00,
2013-04-20 04:32:00,57.9,36.7,29.91,WNW,292,2.7,3.8,45,0.00,,---,0.00,VWS V14.01,2013-04-20 11:32:00,
2013-04-20 04:37:00,57.7,36.6,29.91,WNW,292,2.7,2.7,45,0.00,,---,0.00,VWS V14.01,2013-04-20 11:37:00,
2013-04-20 04:42:00,57.6,36.4,29.91,WNW,292,2.7,2.7,45,0.00,,---,0.00,VWS V14.01,2013-04-20 11:42:00,
2013-04-20 04:47:00,57.0,36.5,29.91,WNW,292,2.7,2.7,46,0.00,,---,0.00,VWS V14.01,2013-04-20 11:47:00,
2013-04-20 04:52:00,56.8,36.3,29.91,WNW,292,2.7,2.7,46,0.00,,---,0.00,VWS V14.01,2013-04-20 11:52:00,
2013-04-20 04:57:00,56.5,36.0,29.91,NNW,338,2.7,2.7,46,0.00,,---,0.00,VWS V14.01,2013-04-20 11:57:00,
2013-04-20 05:02:00,56.3,35.8,29.91,NNW,338,2.7,2.7,46,0.00,,---,0.00,VWS V14.01,2013-04-20 12:02:00,
2013-04-20 05:07:00,56.1,36.2,29.91,NNW,338,2.7,2.7,47,0.00,,---,0.00,VWS V14.01,2013-04-20 12:07:00,
2013-04-20 05:12:00,55.9,36.0,29.91,NNW,338,2.7,2.7,47,0.00,,---,0.00,VWS V14.01,2013-04-20 12:12:00,
2013-04-20 05:17:00,55.8,35.8,29.91,NW,315,2.9,2.9,47,0.00,,---,0.00,VWS V14.01,2013-04-20 12:17:00,
2013-04-20 05:22:00,55.9,36.0,29.91,WNW,292,2.0,2.0,47,0.00,,---,0.00,VWS V14.01,2013-04-20 12:22:00,
2013-04-20 05:27:00,55.8,35.8,29.91,WNW,292,2.0,2.0,47,0.00,,---,0.00,VWS V14.01,2013-04-20 12:27:00,
2013-04-20 05:32:00,55.6,35.7,29.91,WNW,292,2.0,2.0,47,0.00,,---,0.00,VWS V14.01,2013-04-20 12:32:00,
2013-04-20 05:37:00,55.6,36.2,29.91,WNW,292,2.0,2.0,48,0.00,,---,0.00,VWS V14.01,2013-04-20 12:37:00,
2013-04-20 05:42:00,55.4,36.1,29.91,WNW,292,2.0,2.0,48,0.00,,---,0.00,VWS V14.01,2013-04-20 12:42:00,
2013-04-20 05:47:00,55.4,36.6,29.91,WNW,292,2.0,2.0,49,0.00,,---,0.00,VWS V14.01,2013-04-20 12:47:00,
2013-04-20 05:52:00,55.0,36.2,29.91,WNW,292,2.0,2.0,49,0.00,,---,0.00,VWS V14.01,2013-04-20 12:52:00,
2013-04-20 05:57:00,54.7,36.4,29.91,WNW,292,2.0,2.0,50,0.00,,---,0.00,VWS V14.01,2013-04-20 12:57:00,
2013-04-20 06:02:00,54.7,36.4,29.94,NW,315,2.2,2.2,50,0.00,,---,0.00,VWS V14.01,2013-04-20 13:02:00,
2013-04-20 06:07:00,54.1,35.9,29.94,NW,315,2.0,2.0,50,0.00,,---,0.00,VWS V14.01,2013-04-20 13:07:00,
2013-04-20 06:12:00,54.0,36.3,29.94,NW,315,2.0,2.0,51,0.00,,---,0.00,VWS V14.01,2013-04-20 13:12:00,
2013-04-20 06:17:00,54.0,36.8,29.94,NW,315,2.0,2.0,52,0.00,,---,0.00,VWS V14.01,2013-04-20 13:17:00,
2013-04-20 06:22:00,54.0,37.2,29.94,NW,315,2.0,2.0,53,0.00,,---,0.00,VWS V14.01,2013-04-20 13:22:00,
2013-04-20 06:27:00,54.0,37.2,29.94,NW,315,2.0,2.0,53,0.00,,---,0.00,VWS V14.01,2013-04-20 13:27:00,
2013-04-20 06:32:00,53.8,37.1,29.94,NW,315,2.0,2.0,53,0.00,,---,0.00,VWS V14.01,2013-04-20 13:32:00,
2013-04-20 06:37:00,53.6,36.9,29.94,NW,315,0.0,0.0,53,0.00,,---,0.00,VWS V14.01,2013-04-20 13:37:00,
2013-04-20 06:42:00,53.4,37.2,29.94,NNW,338,2.0,2.0,54,0.00,,---,0.00,VWS V14.01,2013-04-20 13:42:00,
2013-04-20 06:47:00,53.4,37.2,29.94,NNW,338,2.0,2.0,54,0.00,,---,0.00,VWS V14.01,2013-04-20 13:47:00,
2013-04-20 06:52:00,53.6,37.4,29.94,NNW,338,2.0,2.0,54,0.00,,---,0.00,VWS V14.01,2013-04-20 13:52:00,
2013-04-20 06:57:00,54.1,37.9,29.94,NNW,338,2.0,2.0,54,0.00,,---,0.00,VWS V14.01,2013-04-20 13:57:00,
2013-04-20 07:03:00,54.5,37.7,29.94,NNW,338,2.0,2.0,53,0.00,,---,0.00,VWS V14.01,2013-04-20 14:03:00,
2013-04-20 07:08:00,54.7,37.9,29.94,NNW,338,2.0,2.0,53,0.00,,---,0.00,VWS V14.01,2013-04-20 14:08:00,
2013-04-20 07:13:00,55.0,37.8,29.94,NNW,338,2.0,2.0,52,0.00,,---,0.00,VWS V14.01,2013-04-20 14:13:00,
2013-04-20 07:18:00,55.6,37.8,29.94,NNW,338,2.0,2.0,51,0.00,,---,0.00,VWS V14.01,2013-04-20 14:18:00,
2013-04-20 07:23:00,56.5,37.6,29.94,NNW,338,2.0,2.0,49,0.00,,---,0.00,VWS V14.01,2013-04-20 14:23:00,
2013-04-20 07:28:00,56.8,36.8,29.94,NNW,338,2.0,2.0,47,0.00,,---,0.00,VWS V14.01,2013-04-20 14:28:00,
2013-04-20 07:33:00,57.2,36.6,29.94,NNW,338,2.0,2.0,46,0.00,,---,0.00,VWS V14.01,2013-04-20 14:33:00,
2013-04-20 07:38:00,58.1,37.5,29.94,NNW,338,2.0,2.0,46,0.00,,---,0.00,VWS V14.01,2013-04-20 14:38:00,
2013-04-20 07:43:00,58.8,37.5,29.94,NNW,338,2.0,2.0,45,0.00,,---,0.00,VWS V14.01,2013-04-20 14:43:00,
2013-04-20 07:48:00,59.5,35.8,29.94,NNW,338,2.0,2.0,41,0.00,,---,0.00,VWS V14.01,2013-04-20 14:48:00,
2013-04-20 07:53:00,59.7,35.4,29.94,NNW,338,2.0,2.0,40,0.00,,---,0.00,VWS V14.01,2013-04-20 14:53:00,
2013-04-20 07:58:00,60.1,35.7,29.94,NNW,338,2.0,2.0,40,0.00,,---,0.00,VWS V14.01,2013-04-20 14:58:00,
2013-04-20 08:03:00,60.4,35.4,29.94,West,270,3.8,3.8,39,0.00,,---,0.00,VWS V14.01,2013-04-20 15:03:00,
2013-04-20 08:08:00,60.3,35.2,29.94,West,270,3.8,3.8,39,0.00,,---,0.00,VWS V14.01,2013-04-20 15:08:00,
2013-04-20 08:13:00,60.1,35.1,29.94,WNW,292,3.6,3.6,39,0.00,,---,0.00,VWS V14.01,2013-04-20 15:13:00,
2013-04-20 08:18:00,59.9,34.9,29.94,WNW,292,3.6,3.6,39,0.00,,---,0.00,VWS V14.01,2013-04-20 15:18:00,
2013-04-20 08:23:00,60.1,35.7,29.94,WNW,292,3.6,3.6,40,0.00,,---,0.00,VWS V14.01,2013-04-20 15:23:00,
2013-04-20 08:28:00,60.4,36.0,29.94,WNW,292,3.6,3.6,40,0.00,,---,0.00,VWS V14.01,2013-04-20 15:28:00,
2013-04-20 08:33:00,60.6,35.5,29.94,NNW,338,3.1,3.1,39,0.00,,---,0.00,VWS V14.01,2013-04-20 15:33:00,
2013-04-20 08:38:00,61.0,35.9,29.94,NNW,338,3.1,3.1,39,0.00,,---,0.00,VWS V14.01,2013-04-20 15:38:00,
2013-04-20 08:43:00,61.7,36.5,29.94,NNW,338,3.1,3.1,39,0.00,,---,0.00,VWS V14.01,2013-04-20 15:43:00,
2013-04-20 08:48:00,62.1,36.2,29.94,NNW,338,3.1,3.1,38,0.00,,---,0.00,VWS V14.01,2013-04-20 15:48:00,
2013-04-20 08:53:00,62.1,35.5,29.94,NW,315,4.9,4.9,37,0.00,,---,0.00,VWS V14.01,2013-04-20 15:53:00,
2013-04-20 08:58:00,63.0,36.3,29.94,NW,315,4.9,4.9,37,0.00,,---,0.00,VWS V14.01,2013-04-20 15:58:00,
2013-04-20 09:03:00,64.0,37.3,29.94,NW,315,4.9,4.9,37,0.00,,---,0.00,VWS V14.01,2013-04-20 16:03:00,
2013-04-20 09:08:00,64.9,36.7,29.94,NE,45,2.7,2.7,35,0.00,,---,0.00,VWS V14.01,2013-04-20 16:08:00,
2013-04-20 09:13:00,64.9,36.7,29.94,NE,45,2.7,2.7,35,0.00,,---,0.00,VWS V14.01,2013-04-20 16:13:00,
2013-04-20 09:18:00,65.7,36.6,29.94,NE,45,2.7,2.7,34,0.00,,---,0.00,VWS V14.01,2013-04-20 16:18:00,
2013-04-20 09:23:00,66.7,37.5,29.94,NE,45,2.7,2.7,34,0.00,,---,0.00,VWS V14.01,2013-04-20 16:23:00,
2013-04-20 09:28:00,67.5,38.1,29.94,NE,45,2.7,2.7,34,0.00,,---,0.00,VWS V14.01,2013-04-20 16:28:00,
2013-04-20 09:33:00,67.5,37.4,29.94,NE,45,2.7,2.7,33,0.00,,---,0.00,VWS V14.01,2013-04-20 16:33:00,
2013-04-20 09:38:00,67.3,37.2,29.94,NE,45,2.7,2.7,33,0.00,,---,0.00,VWS V14.01,2013-04-20 16:38:00,
2013-04-20 09:43:00,68.4,38.2,29.94,NE,45,2.7,2.7,33,0.00,,---,0.00,VWS V14.01,2013-04-20 16:43:00,
2013-04-20 09:48:00,68.5,37.5,29.91,NE,45,2.7,2.7,32,0.00,,---,0.00,VWS V14.01,2013-04-20 16:48:00,
2013-04-20 09:53:00,69.6,38.5,29.91,NE,45,2.7,2.7,32,0.00,,---,0.00,VWS V14.01,2013-04-20 16:53:00,
2013-04-20 09:58:00,69.4,37.5,29.91,NE,45,2.7,2.7,31,0.00,,---,0.00,VWS V14.01,2013-04-20 16:58:00,
2013-04-20 10:03:00,69.1,36.4,29.91,NE,45,2.7,2.7,30,0.00,,---,0.00,VWS V14.01,2013-04-20 17:03:00,
2013-04-20 10:08:00,71.1,38.1,29.91,NE,45,2.7,2.7,30,0.00,,---,0.00,VWS V14.01,2013-04-20 17:08:00,
2013-04-20 10:13:00,71.2,37.4,29.91,NE,45,2.7,2.7,29,0.00,,---,0.00,VWS V14.01,2013-04-20 17:13:00,
2013-04-20 10:18:00,72.1,37.3,29.91,NE,45,2.7,2.7,28,0.00,,---,0.00,VWS V14.01,2013-04-20 17:18:00,
2013-04-20 10:23:00,73.0,36.2,29.91,NE,45,2.7,2.7,26,0.00,,---,0.00,VWS V14.01,2013-04-20 17:23:00,
2013-04-20 10:28:00,73.4,36.5,29.91,WSW,248,3.6,3.6,26,0.00,,---,0.00,VWS V14.01,2013-04-20 17:28:00,
2013-04-20 10:33:00,73.9,35.9,29.91,WNW,292,3.1,3.1,25,0.00,,---,0.00,VWS V14.01,2013-04-20 17:33:00,
2013-04-20 10:38:00,73.2,34.3,29.91,North,0,7.8,7.8,24,0.00,,---,0.00,VWS V14.01,2013-04-20 17:38:00,
2013-04-20 10:43:00,73.6,34.6,29.91,NNW,338,6.5,6.5,24,0.00,,---,0.00,VWS V14.01,2013-04-20 17:43:00,
2013-04-20 10:48:00,74.3,34.1,29.91,ENE,68,5.4,5.4,23,0.00,,---,0.00,VWS V14.01,2013-04-20 17:48:00,
2013-04-20 10:53:00,74.8,35.7,29.91,NNE,22,6.5,6.5,24,0.00,,---,0.00,VWS V14.01,2013-04-20 17:53:00,
2013-04-20 10:58:00,75.2,34.9,29.91,NNW,338,3.4,3.4,23,0.00,,---,0.00,VWS V14.01,2013-04-20 17:58:00,
2013-04-20 11:03:00,75.9,34.4,29.91,NW,315,6.3,6.3,22,0.00,,---,0.00,VWS V14.01,2013-04-20 18:03:00,
2013-04-20 11:09:00,75.4,33.9,29.91,NNW,338,6.3,6.3,22,0.00,,---,0.00,VWS V14.01,2013-04-20 18:09:00,
2013-04-20 11:14:00,75.9,34.4,29.91,North,0,7.2,7.2,22,0.00,,---,0.00,VWS V14.01,2013-04-20 18:14:00,
2013-04-20 11:19:00,77.5,35.7,29.88,NNE,22,7.2,7.2,22,0.00,,---,0.00,VWS V14.01,2013-04-20 18:19:00,
2013-04-20 11:24:00,77.5,34.6,29.88,North,0,6.5,6.5,21,0.00,,---,0.00,VWS V14.01,2013-04-20 18:24:00,
2013-04-20 11:29:00,77.4,35.6,29.88,SSW,202,3.1,3.1,22,0.00,,---,0.00,VWS V14.01,2013-04-20 18:29:00,
2013-04-20 11:34:00,77.5,34.6,29.88,North,0,7.4,7.4,21,0.00,,---,0.00,VWS V14.01,2013-04-20 18:34:00,
2013-04-20 11:39:00,76.8,34.0,29.88,NNW,338,5.4,6.3,21,0.00,,---,0.00,VWS V14.01,2013-04-20 18:39:00,
2013-04-20 11:44:00,77.9,34.9,29.88,WNW,292,4.0,4.0,21,0.00,,---,0.00,VWS V14.01,2013-04-20 18:44:00,
2013-04-20 11:49:00,77.7,34.7,29.88,North,0,5.4,7.4,21,0.00,,---,0.00,VWS V14.01,2013-04-20 18:49:00,
2013-04-20 11:54:00,78.1,35.0,29.88,NW,315,7.6,7.6,21,0.00,,---,0.00,VWS V14.01,2013-04-20 18:54:00,
2013-04-20 11:59:00,77.9,34.9,29.88,North,0,6.5,6.5,21,0.00,,---,0.00,VWS V14.01,2013-04-20 18:59:00,
2013-04-20 12:04:00,79.2,34.7,29.85,NE,45,5.8,5.8,20,0.00,,---,0.00,VWS V14.01,2013-04-20 19:04:00,
2013-04-20 12:09:00,79.2,34.7,29.85,NNW,338,2.7,7.2,20,0.00,,---,0.00,VWS V14.01,2013-04-20 19:09:00,
2013-04-20 12:14:00,78.8,34.4,29.85,North,0,6.3,7.8,20,0.00,,---,0.00,VWS V14.01,2013-04-20 19:14:00,
2013-04-20 12:19:00,79.7,36.3,29.85,NW,315,6.5,7.6,21,0.00,,---,0.00,VWS V14.01,2013-04-20 19:19:00,
2013-04-20 12:24:00,78.8,34.4,29.85,NW,315,2.7,6.5,20,0.00,,---,0.00,VWS V14.01,2013-04-20 19:24:00,
2013-04-20 12:29:00,80.1,35.4,29.85,NNE,22,6.3,6.3,20,0.00,,---,0.00,VWS V14.01,2013-04-20 19:29:00,
2013-04-20 12:34:00,81.0,36.2,29.85,SE,135,3.1,4.9,20,0.00,,---,0.00,VWS V14.01,2013-04-20 19:34:00,
2013-04-20 12:39:00,80.4,35.7,29.85,North,0,6.3,6.3,20,0.00,,---,0.00,VWS V14.01,2013-04-20 19:39:00,
2013-04-20 12:44:00,80.6,35.9,29.85,WNW,292,2.7,6.5,20,0.00,,---,0.00,VWS V14.01,2013-04-20 19:44:00,
2013-04-20 12:49:00,80.6,34.6,29.85,WNW,292,2.7,3.6,19,0.00,,---,0.00,VWS V14.01,2013-04-20 19:49:00,
2013-04-20 12:54:00,80.6,34.6,29.85,NNW,338,4.0,4.9,19,0.00,,---,0.00,VWS V14.01,2013-04-20 19:54:00,
2013-04-20 12:59:00,81.3,35.2,29.82,West,270,2.0,3.1,19,0.00,,---,0.00,VWS V14.01,2013-04-20 19:59:00,
2013-04-20 13:05:00,82.4,36.0,29.82,NNW,338,5.4,5.4,19,0.00,,---,0.00,VWS V14.01,2013-04-20 20:05:00,
2013-04-20 13:10:00,81.5,35.3,29.82,NNE,22,3.8,9.8,19,0.00,,---,0.00,VWS V14.01,2013-04-20 20:10:00,
2013-04-20 13:15:00,81.9,32.8,29.82,WNW,292,4.3,9.2,17,0.00,,---,0.00,VWS V14.01,2013-04-20 20:15:00,
2013-04-20 13:20:00,81.7,32.7,29.82,NE,45,9.8,9.8,17,0.00,,---,0.00,VWS V14.01,2013-04-20 20:20:00,
2013-04-20 13:25:00,82.0,33.0,29.82,WNW,292,7.8,7.8,17,0.00,,---,0.00,VWS V14.01,2013-04-20 20:25:00,
2013-04-20 13:30:00,82.2,35.9,29.82,North,0,4.3,6.5,19,0.00,,---,0.00,VWS V14.01,2013-04-20 20:30:00,
2013-04-20 13:35:00,82.2,33.1,29.82,NNW,338,4.9,5.8,17,0.00,,---,0.00,VWS V14.01,2013-04-20 20:35:00,
2013-04-20 13:40:00,82.4,31.8,29.82,NNW,338,8.7,8.7,16,0.00,,---,0.00,VWS V14.01,2013-04-20 20:40:00,
2013-04-20 13:45:00,83.1,32.3,29.79,NNW,338,4.9,7.8,16,0.00,,---,0.00,VWS V14.01,2013-04-20 20:45:00,
2013-04-20 13:50:00,83.3,32.5,29.79,NNW,338,4.3,5.4,16,0.00,,---,0.00,VWS V14.01,2013-04-20 20:50:00,
2013-04-20 13:55:00,84.2,33.2,29.79,NNE,22,3.8,4.9,16,0.00,,---,0.00,VWS V14.01,2013-04-20 20:55:00,
2013-04-20 14:00:00,84.9,33.8,29.79,NNW,338,5.6,7.8,16,0.00,,---,0.00,VWS V14.01,2013-04-20 21:00:00,
2013-04-20 14:05:00,83.5,32.6,29.79,North,0,2.5,7.8,16,0.00,,---,0.00,VWS V14.01,2013-04-20 21:05:00,
2013-04-20 14:10:00,84.4,33.3,29.79,NNW,338,1.6,6.5,16,0.00,,---,0.00,VWS V14.01,2013-04-20 21:10:00,
2013-04-20 14:15:00,83.7,32.8,29.76,ESE,112,7.8,7.8,16,0.00,,---,0.00,VWS V14.01,2013-04-20 21:15:00,
2013-04-20 14:20:00,85.3,34.1,29.76,NW,315,7.4,7.4,16,0.00,,---,0.00,VWS V14.01,2013-04-20 21:20:00,
2013-04-20 14:25:00,85.3,28.9,29.76,NNW,338,5.4,5.4,13,0.00,,---,0.00,VWS V14.01,2013-04-20 21:25:00,
2013-04-20 14:30:00,84.9,28.6,29.79,NW,315,5.8,5.8,13,0.00,,---,0.00,VWS V14.01,2013-04-20 21:30:00,
2013-04-20 14:35:00,85.5,29.1,29.79,NNE,22,5.6,5.6,13,0.00,,---,0.00,VWS V14.01,2013-04-20 21:35:00,
2013-04-20 14:40:00,84.7,28.5,29.79,North,0,2.9,2.9,13,0.00,,---,0.00,VWS V14.01,2013-04-20 21:40:00,
2013-04-20 14:45:00,85.8,29.4,29.79,NNW,338,4.0,4.0,13,0.00,,---,0.00,VWS V14.01,2013-04-20 21:45:00,
2013-04-20 14:50:00,86.2,29.6,29.79,North,0,5.6,5.6,13,0.00,,---,0.00,VWS V14.01,2013-04-20 21:50:00,
2013-04-20 14:55:00,86.2,29.6,29.79,NW,315,3.4,3.4,13,0.00,,---,0.00,VWS V14.01,2013-04-20 21:55:00,
2013-04-20 15:00:00,85.8,29.4,29.76,North,0,1.3,1.3,13,0.00,,---,0.00,VWS V14.01,2013-04-20 22:00:00,
2013-04-20 15:06:00,86.4,29.8,29.76,NW,315,2.5,2.5,13,0.00,,---,0.00,VWS V14.01,2013-04-20 22:06:00,
2013-04-20 15:11:00,85.6,29.2,29.76,NNW,338,2.9,2.9,13,0.00,,---,0.00,VWS V14.01,2013-04-20 22:11:00,
2013-04-20 15:16:00,85.1,28.8,29.79,NW,315,2.9,2.9,13,0.00,,---,0.00,VWS V14.01,2013-04-20 22:16:00,
2013-04-20 15:21:00,86.2,29.6,29.79,North,0,3.6,3.6,13,0.00,,---,0.00,VWS V14.01,2013-04-20 22:21:00,
2013-04-20 15:26:00,87.4,30.6,29.79,NNW,338,3.4,3.4,13,0.00,,---,0.00,VWS V14.01,2013-04-20 22:26:00,
2013-04-20 15:31:00,86.9,30.2,29.79,NNW,338,4.7,4.7,13,0.00,,---,0.00,VWS V14.01,2013-04-20 22:31:00,
2013-04-20 15:36:00,86.5,29.9,29.79,NNW,338,4.7,4.7,13,0.00,,---,0.00,VWS V14.01,2013-04-20 22:36:00,
2013-04-20 15:41:00,87.1,30.3,29.79,NNW,338,4.7,4.7,13,0.00,,---,0.00,VWS V14.01,2013-04-20 22:41:00,
2013-04-20 15:46:00,86.7,30.0,29.79,NNW,338,4.0,4.0,13,0.00,,---,0.00,VWS V14.01,2013-04-20 22:46:00,
2013-04-20 15:51:00,87.6,30.8,29.79,North,0,2.0,2.0,13,0.00,,---,0.00,VWS V14.01,2013-04-20 22:51:00,
2013-04-20 15:56:00,87.4,30.6,29.79,NW,315,3.1,3.1,13,0.00,,---,0.00,VWS V14.01,2013-04-20 22:56:00,
2013-04-20 16:01:00,88.2,31.2,29.76,NW,315,3.1,3.1,13,0.00,,---,0.00,VWS V14.01,2013-04-20 23:01:00,
2013-04-20 16:06:00,87.6,30.8,29.76,NW,315,3.1,3.1,13,0.00,,---,0.00,VWS V14.01,2013-04-20 23:06:00,
2013-04-20 16:11:00,87.4,30.6,29.76,NNW,338,5.4,5.4,13,0.00,,---,0.00,VWS V14.01,2013-04-20 23:11:00,
2013-04-20 16:16:00,87.1,30.3,29.76,NNE,22,3.4,3.4,13,0.00,,---,0.00,VWS V14.01,2013-04-20 23:16:00,
2013-04-20 16:21:00,87.6,30.8,29.76,NNW,338,5.8,5.8,13,0.00,,---,0.00,VWS V14.01,2013-04-20 23:21:00,
2013-04-20 16:26:00,87.6,30.8,29.76,NNW,338,5.8,5.8,13,0.00,,---,0.00,VWS V14.01,2013-04-20 23:26:00,
2013-04-20 16:31:00,88.0,31.0,29.76,WSW,248,3.1,3.1,13,0.00,,---,0.00,VWS V14.01,2013-04-20 23:31:00,
2013-04-20 16:36:00,88.0,31.0,29.76,WNW,292,3.4,3.4,13,0.00,,---,0.00,VWS V14.01,2013-04-20 23:36:00,
2013-04-20 16:41:00,88.2,31.2,29.76,WNW,292,4.7,4.7,13,0.00,,---,0.00,VWS V14.01,2013-04-20 23:41:00,
2013-04-20 16:46:00,87.1,30.3,29.76,WNW,292,4.7,4.7,13,0.00,,---,0.00,VWS V14.01,2013-04-20 23:46:00,
2013-04-20 16:52:00,86.7,30.0,29.76,NNW,338,3.6,3.6,13,0.00,,---,0.00,VWS V14.01,2013-04-20 23:52:00,
2013-04-20 16:57:00,88.2,31.2,29.76,NNW,338,3.6,3.6,13,0.00,,---,0.00,VWS V14.01,2013-04-20 23:57:00,
2013-04-20 17:02:00,87.4,30.6,29.76,NNW,338,4.7,4.7,13,0.00,,---,0.00,VWS V14.01,2013-04-21 00:02:00,
2013-04-20 17:07:00,87.1,30.3,29.76,NW,315,4.9,4.9,13,0.00,,---,0.00,VWS V14.01,2013-04-21 00:07:00,
2013-04-20 17:12:00,86.5,29.9,29.76,NW,315,4.9,4.9,13,0.00,,---,0.00,VWS V14.01,2013-04-21 00:12:00,
2013-04-20 17:17:00,86.4,29.8,29.76,NW,315,4.9,4.9,13,0.00,,---,0.00,VWS V14.01,2013-04-21 00:17:00,
2013-04-20 17:22:00,86.0,29.5,29.76,NNW,338,6.5,6.5,13,0.00,,---,0.00,VWS V14.01,2013-04-21 00:22:00,
2013-04-20 17:27:00,85.1,28.8,29.76,NNW,338,4.3,5.6,13,0.00,,---,0.00,VWS V14.01,2013-04-21 00:27:00,
2013-04-20 17:32:00,85.5,29.1,29.76,WNW,292,3.1,3.4,13,0.00,,---,0.00,VWS V14.01,2013-04-21 00:32:00,
2013-04-20 17:37:00,84.7,28.5,29.76,WNW,292,3.4,3.4,13,0.00,,---,0.00,VWS V14.01,2013-04-21 00:37:00,
2013-04-20 17:42:00,84.6,28.4,29.76,WNW,292,2.9,2.9,13,0.00,,---,0.00,VWS V14.01,2013-04-21 00:42:00,
2013-04-20 17:47:00,84.6,28.4,29.76,NNE,22,1.6,1.6,13,0.00,,---,0.00,VWS V14.01,2013-04-21 00:47:00,
2013-04-20 17:52:00,83.7,29.5,29.76,NW,315,4.3,4.3,14,0.00,,---,0.00,VWS V14.01,2013-04-21 00:52:00,
2013-04-20 17:57:00,83.8,29.6,29.76,WNW,292,5.8,6.3,14,0.00,,---,0.00,VWS V14.01,2013-04-21 00:57:00,
2013-04-20 18:02:00,82.8,23.0,29.76,WNW,292,3.4,3.6,11,0.00,,---,0.00,VWS V14.01,2013-04-21 01:02:00,
2013-04-20 18:07:00,82.0,24.5,29.76,NNW,338,2.5,4.9,12,0.00,,---,0.00,VWS V14.01,2013-04-21 01:07:00,
2013-04-20 18:12:00,81.7,24.2,29.76,NW,315,2.5,3.4,12,0.00,,---,0.00,VWS V14.01,2013-04-21 01:12:00,
2013-04-20 18:17:00,81.3,23.9,29.76,NNE,22,2.0,2.0,12,0.00,,---,0.00,VWS V14.01,2013-04-21 01:17:00,
2013-04-20 18:22:00,80.8,23.5,29.76,NNW,338,2.5,2.5,12,0.00,,---,0.00,VWS V14.01,2013-04-21 01:22:00,
2013-04-20 18:27:00,80.6,23.4,29.76,NNW,338,3.8,3.8,12,0.00,,---,0.00,VWS V14.01,2013-04-21 01:27:00,
2013-04-20 18:32:00,80.2,23.1,29.76,WNW,292,2.0,2.7,12,0.00,,---,0.00,VWS V14.01,2013-04-21 01:32:00,
2013-04-20 18:37:00,79.9,22.8,29.76,NW,315,2.5,2.5,12,0.00,,---,0.00,VWS V14.01,2013-04-21 01:37:00,
2013-04-20 18:42:00,79.3,22.4,29.76,NW,315,2.5,2.5,12,0.00,,---,0.00,VWS V14.01,2013-04-21 01:42:00,
2013-04-20 18:47:00,79.2,22.2,29.76,North,0,2.9,2.9,12,0.00,,---,0.00,VWS V14.01,2013-04-21 01:47:00,
2013-04-20 18:52:00,78.6,23.7,29.76,NNW,338,1.6,1.6,13,0.00,,---,0.00,VWS V14.01,2013-04-21 01:52:00,
2013-04-20 18:57:00,78.3,23.4,29.76,NNW,338,1.6,1.6,13,0.00,,---,0.00,VWS V14.01,2013-04-21 01:57:00,
2013-04-20 19:02:00,78.1,23.3,29.76,NNW,338,1.6,1.6,13,0.00,,---,0.00,VWS V14.01,2013-04-21 02:02:00,
2013-04-20 19:07:00,77.2,22.6,29.76,NNW,338,1.6,1.6,13,0.00,,---,0.00,VWS V14.01,2013-04-21 02:07:00,
2013-04-20 19:12:00,76.3,21.9,29.76,NNW,338,1.6,1.6,13,0.00,,---,0.00,VWS V14.01,2013-04-21 02:12:00,
2013-04-20 19:17:00,75.2,21.0,29.76,NNW,338,1.6,1.6,13,0.00,,---,0.00,VWS V14.01,2013-04-21 02:17:00,
2013-04-20 19:22:00,73.8,24.8,29.76,NNW,338,1.6,1.6,16,0.00,,---,0.00,VWS V14.01,2013-04-21 02:22:00,
2013-04-20 19:27:00,72.9,24.1,29.76,NNW,338,1.6,1.6,16,0.00,,---,0.00,VWS V14.01,2013-04-21 02:27:00,
2013-04-20 19:32:00,71.8,23.2,29.76,NE,45,0.0,0.0,16,0.00,,---,0.00,VWS V14.01,2013-04-21 02:32:00,
2013-04-20 19:38:00,71.2,24.2,29.76,NE,45,0.0,0.0,17,0.00,,---,0.00,VWS V14.01,2013-04-21 02:38:00,
2013-04-20 19:43:00,70.3,23.5,29.76,NE,45,0.0,0.0,17,0.00,,---,0.00,VWS V14.01,2013-04-21 02:43:00,
2013-04-20 19:48:00,69.6,22.9,29.76,NE,45,0.0,0.0,17,0.00,,---,0.00,VWS V14.01,2013-04-21 02:48:00,
2013-04-20 19:53:00,68.7,22.2,29.76,NE,45,0.0,0.0,17,0.00,,---,0.00,VWS V14.01,2013-04-21 02:53:00,
2013-04-20 19:58:00,68.4,25.8,29.76,NE,45,0.0,0.0,20,0.00,,---,0.00,VWS V14.01,2013-04-21 02:58:00,
2013-04-20 20:03:00,67.8,27.6,29.79,NE,45,0.0,0.0,22,0.00,,---,0.00,VWS V14.01,2013-04-21 03:03:00,
2013-04-20 20:08:00,67.3,28.2,29.79,NE,45,0.0,0.0,23,0.00,,---,0.00,VWS V14.01,2013-04-21 03:08:00,
2013-04-20 20:13:00,66.6,27.6,29.79,NE,45,0.0,0.0,23,0.00,,---,0.00,VWS V14.01,2013-04-21 03:13:00,
2013-04-20 20:18:00,66.0,27.2,29.79,NE,45,0.0,0.0,23,0.00,,---,0.00,VWS V14.01,2013-04-21 03:18:00,
2013-04-20 20:23:00,65.8,28.1,29.79,NE,45,0.0,0.0,24,0.00,,---,0.00,VWS V14.01,2013-04-21 03:23:00,
2013-04-20 20:28:00,65.3,27.6,29.79,NE,45,0.0,0.0,24,0.00,,---,0.00,VWS V14.01,2013-04-21 03:28:00,
2013-04-20 20:33:00,64.9,27.3,29.79,NE,45,0.0,0.0,24,0.00,,---,0.00,VWS V14.01,2013-04-21 03:33:00,
2013-04-20 20:38:00,64.9,27.3,29.79,NE,45,0.0,0.0,24,0.00,,---,0.00,VWS V14.01,2013-04-21 03:38:00,
2013-04-20 20:43:00,64.4,26.9,29.79,NE,45,0.0,0.0,24,0.00,,---,0.00,VWS V14.01,2013-04-21 03:43:00,
2013-04-20 20:48:00,63.9,26.4,29.79,NE,45,0.0,0.0,24,0.00,,---,0.00,VWS V14.01,2013-04-21 03:48:00,
2013-04-20 20:53:00,63.3,25.9,29.79,NE,45,0.0,0.0,24,0.00,,---,0.00,VWS V14.01,2013-04-21 03:53:00,
2013-04-20 20:58:00,63.1,26.8,29.79,NE,45,0.0,0.0,25,0.00,,---,0.00,VWS V14.01,2013-04-21 03:58:00,
2013-04-20 21:01:00,63.1,27.7,29.79,NE,45,0.0,0.0,26,0.00,,---,0.00,VWS V14.01,2013-04-21 04:01:00,
2013-04-20 21:02:00,63.0,27.6,29.79,NE,45,0.0,0.0,26,0.00,,---,0.00,VWS V14.01,2013-04-21 04:02:00,
2013-04-20 21:07:00,62.6,27.3,29.79,NE,45,0.0,0.0,26,0.00,,---,0.00,VWS V14.01,2013-04-21 04:07:00,
2013-04-20 21:12:00,62.8,30.1,29.79,SSE,158,1.3,1.3,29,0.00,,---,0.00,VWS V14.01,2013-04-21 04:12:00,
2013-04-20 21:17:00,62.4,31.4,29.79,SSE,158,1.3,1.3,31,0.00,,---,0.00,VWS V14.01,2013-04-21 04:17:00,
2013-04-20 21:22:00,62.1,31.1,29.79,SSE,158,1.3,1.3,31,0.00,,---,0.00,VWS V14.01,2013-04-21 04:22:00,
2013-04-20 21:27:00,62.2,33.5,29.79,SSE,158,1.3,1.3,34,0.00,,---,0.00,VWS V14.01,2013-04-21 04:27:00,
2013-04-20 21:32:00,62.1,34.1,29.79,SSE,158,1.3,1.3,35,0.00,,---,0.00,VWS V14.01,2013-04-21 04:32:00,
2013-04-20 21:37:00,61.7,33.8,29.79,SSE,158,1.3,1.3,35,0.00,,---,0.00,VWS V14.01,2013-04-21 04:37:00,
2013-04-20 21:42:00,62.1,35.5,29.79,SSE,158,1.3,1.3,37,0.00,,---,0.00,VWS V14.01,2013-04-21 04:42:00,
2013-04-20 21:47:00,61.9,36.0,29.82,SSE,158,1.3,1.3,38,0.00,,---,0.00,VWS V14.01,2013-04-21 04:47:00,
2013-04-20 21:52:00,61.5,35.7,29.82,SSE,158,1.3,1.3,38,0.00,,---,0.00,VWS V14.01,2013-04-21 04:52:00,
2013-04-20 21:57:00,60.8,35.7,29.82,SSE,158,1.3,1.3,39,0.00,,---,0.00,VWS V14.01,2013-04-21 04:57:00,
2013-04-20 22:02:00,60.6,35.5,29.82,SSE,158,1.3,1.3,39,0.00,,---,0.00,VWS V14.01,2013-04-21 05:02:00,
2013-04-20 22:07:00,60.4,38.4,29.82,SSE,158,1.3,1.3,44,0.00,,---,0.00,VWS V14.01,2013-04-21 05:07:00,
2013-04-20 22:12:00,60.1,38.1,29.82,SSE,158,1.3,1.3,44,0.00,,---,0.00,VWS V14.01,2013-04-21 05:12:00,
2013-04-20 22:17:00,59.7,36.6,29.82,SSE,158,1.3,1.3,42,0.00,,---,0.00,VWS V14.01,2013-04-21 05:17:00,
2013-04-20 22:22:00,59.4,36.9,29.82,SSE,158,1.3,1.3,43,0.00,,---,0.00,VWS V14.01,2013-04-21 05:22:00,
2013-04-20 22:27:00,59.2,37.9,29.82,SSE,158,1.3,1.3,45,0.00,,---,0.00,VWS V14.01,2013-04-21 05:27:00,
2013-04-20 22:32:00,58.8,37.5,29.82,SSE,158,1.3,1.3,45,0.00,,---,0.00,VWS V14.01,2013-04-21 05:32:00,
2013-04-20 22:38:00,58.5,37.8,29.82,SSE,158,1.3,1.3,46,0.00,,---,0.00,VWS V14.01,2013-04-21 05:38:00,
2013-04-20 22:43:00,58.1,37.5,29.82,SSE,158,1.3,1.3,46,0.00,,---,0.00,VWS V14.01,2013-04-21 05:43:00,
2013-04-20 22:48:00,57.9,37.8,29.82,SSE,158,1.3,1.3,47,0.00,,---,0.00,VWS V14.01,2013-04-21 05:48:00,
2013-04-20 22:53:00,57.7,37.7,29.82,SSE,158,1.3,1.3,47,0.00,,---,0.00,VWS V14.01,2013-04-21 05:53:00,
2013-04-20 22:58:00,57.6,37.5,29.82,SSE,158,1.3,1.3,47,0.00,,---,0.00,VWS V14.01,2013-04-21 05:58:00,
2013-04-20 23:03:00,57.6,37.0,29.82,SSE,158,1.3,1.3,46,0.00,,---,0.00,VWS V14.01,2013-04-21 06:03:00,
2013-04-20 23:08:00,57.4,36.2,29.82,SSE,158,1.3,1.3,45,0.00,,---,0.00,VWS V14.01,2013-04-21 06:08:00,
2013-04-20 23:13:00,56.8,37.4,29.82,SSE,158,1.3,1.3,48,0.00,,---,0.00,VWS V14.01,2013-04-21 06:13:00,
2013-04-20 23:18:00,56.7,36.7,29.82,SSE,158,1.3,1.3,47,0.00,,---,0.00,VWS V14.01,2013-04-21 06:18:00,
2013-04-20 23:23:00,56.5,37.0,29.82,SSE,158,1.3,1.3,48,0.00,,---,0.00,VWS V14.01,2013-04-21 06:23:00,
2013-04-20 23:28:00,56.5,37.0,29.82,SSE,158,1.3,1.3,48,0.00,,---,0.00,VWS V14.01,2013-04-21 06:28:00,
2013-04-20 23:33:00,56.3,37.4,29.82,SSE,158,1.3,1.3,49,0.00,,---,0.00,VWS V14.01,2013-04-21 06:33:00,
2013-04-20 23:38:00,55.9,37.1,29.82,SSE,158,1.3,1.3,49,0.00,,---,0.00,VWS V14.01,2013-04-21 06:38:00,
2013-04-20 23:43:00,55.6,37.2,29.82,SSE,158,1.3,1.3,50,0.00,,---,0.00,VWS V14.01,2013-04-21 06:43:00,
2013-04-20 23:48:00,55.4,37.1,29.82,SSE,158,1.3,1.3,50,0.00,,---,0.00,VWS V14.01,2013-04-21 06:48:00,
2013-04-20 23:53:00,55.0,36.8,29.82,SSE,158,1.3,1.3,50,0.00,,---,0.00,VWS V14.01,2013-04-21 06:53:00,
2013-04-20 23:58:00,54.7,37.4,29.82,SSE,158,1.3,1.3,52,0.00,,---,0.00,VWS V14.01,2013-04-21 06:58:00,